[[{"header":{"parameterUnit":"m.s-1","parameterCategory":1,"la1":30.2991,"la2":30.254,"lo1":-89.0895,"lo2":-89.0444,"dy":0.0017,"dx":0.0017,"nx":28,"ny":28,"refTime":"2025-09-16T03:00:00:Z","depth":0,"parameterNumber":2,"parameterNumberName":"U-component_of_WINDS"},"data":[0,0,0,0,0,0,0,0,0,0,0,0,0,0,0,0,0,0,0,0,0,0,0,0,0,0,0,0,0,0,0,0,0,0,0,0,0,0,0,0,0,0,0,0,0,0,0,0,0,0,0,0,0,0,0,0,0,0,1.3303,1.3304,0,1.3328,1.3328,1.3329,1.3334,1.3334,1.3334,1.3334,1.3357,1.3358,1.3359,0,0,0,0,0,0,0,0,0,0,0,0,0,1.3258,1.3259,1.3303,1.3304,1.3304,1.3328,1.3328,1.3329,1.3335,1.3334,1.3334,1.3334,1.3357,1.3358,1.3359,0,0,0,0,0,0,0,0,0,0,0,0,0,1.328,1.3259,1.3303,1.331,1.3311,1.3328,1.3328,1.3329,1.3335,1.3334,1.3334,1.3334,1.3357,1.3358,1.3359,1.3371,0,0,1.3363,1.3363,0,0,0,0,0,0,0,0,1.3278,1.3281,1.3309,1.3309,1.331,1.3328,1.3321,1.3343,1.3335,1.3325,1.3334,1.3334,1.3348,1.335,1.3355,1.3372,1.3373,1.3363,1.3363,1.3364,1.3364,0,0,0,0,0,0,0,1.3277,1.328,1.3313,1.3309,1.331,1.331,1.3313,1.3325,1.3338,1.3326,1.3327,1.333,1.3348,1.3353,1.3355,1.3373,1.3363,1.3364,1.3364,1.3365,1.3399,1.34,0,0,0,0,0,0,1.3275,1.3279,1.3312,1.3314,1.3294,1.3311,1.3315,1.3323,1.3337,1.334,1.333,1.333,1.3352,1.3354,1.3356,1.337,1.3364,1.3365,1.3366,1.3399,1.34,1.34,0,0,0,0,0,0,1.3274,1.3278,1.3311,1.3297,1.3301,1.3313,1.3321,1.3323,1.3329,1.334,1.3342,1.3333,1.3352,1.3354,1.3367,1.3371,1.3365,1.3367,1.3399,1.3399,1.34,1.3398,0,0,0,0,0,0,1.3272,1.3277,1.3283,1.3297,1.3302,1.3323,1.3322,1.3324,1.3331,1.3331,1.3344,1.3346,1.3352,1.3365,1.3368,1.3372,1.3367,1.3399,1.3399,1.34,1.3398,1.3398,1.3398,0,0,0,0,0,1.3271,1.3281,1.3283,1.3287,1.3309,1.3323,1.3326,1.3333,1.3331,1.3336,1.3343,1.3345,1.337,1.3366,1.337,1.3374,1.3399,1.3399,1.34,1.3397,1.3398,1.3398,0,0,0,0,0,0,1.3268,1.3283,1.3286,1.3301,1.3311,1.3324,1.3331,1.3333,1.3343,1.3343,1.335,1.3353,1.3365,1.3371,1.3367,1.3385,1.3384,1.3385,1.3381,1.3382,1.3382,1.338,1.3368,0,0,0,0,0,1.3269,1.328,1.3293,1.3305,1.331,1.3319,1.3326,1.333,1.334,1.3344,1.3352,1.3361,1.337,1.3376,1.3386,1.3398,1.34,1.3403,1.3403,1.3404,1.3404,1.341,1.3411,1.3401,1.3401,1.3401,0,0,1.3271,1.3281,1.3288,1.3305,1.3312,1.3322,1.3323,1.3334,1.334,1.3345,1.3357,1.3363,1.3374,1.3386,1.3391,1.3391,1.3407,1.3404,1.3404,1.3405,1.341,1.3411,1.3412,1.3402,1.3402,1.3402,0,0,1.3281,1.329,1.33,1.3308,1.332,1.3326,1.3328,1.3341,1.3345,1.3357,1.3361,1.3368,1.3385,1.3392,1.3397,1.3407,1.3409,1.341,1.3412,1.3417,1.3418,1.3418,1.3421,1.3422,1.341,1.341,1.341,0,1.3282,1.3298,1.3305,1.3316,1.3322,1.3327,1.3337,1.3344,1.3358,1.3361,1.3361,1.3381,1.3388,1.3401,1.3403,1.3408,1.341,1.3408,1.3417,1.3418,1.3419,1.3421,1.3422,1.341,1.341,1.341,1.341,0,1.3298,1.3309,1.3316,1.3329,1.3337,1.3347,1.3354,1.3361,1.3364,1.3369,1.3381,1.3389,1.34,1.3403,1.3407,1.3416,1.3415,1.3416,1.3415,1.3419,1.3422,1.3423,1.341,1.341,1.341,1.341,0,0,1.3308,1.3324,1.3326,1.3331,1.3344,1.3352,1.3361,1.3372,1.3376,1.3385,1.3392,1.3405,1.3405,1.3412,1.3416,1.342,1.3425,1.342,1.342,1.342,1.3435,1.3434,1.3435,1.3427,1.3427,1.3427,1.3434,0,1.3318,1.3335,1.3341,1.3355,1.3364,1.3368,1.3376,1.3383,1.3389,1.3396,1.3401,1.341,1.341,1.3414,1.3418,1.3424,1.3429,1.3424,1.3432,1.3433,1.343,1.3437,1.3436,1.3442,1.3435,1.3435,1.3435,0,1.3332,1.3341,1.3356,1.3366,1.337,1.3377,1.3386,1.3394,1.3402,1.3405,1.3411,1.3414,1.3423,1.3421,1.3432,1.3428,1.3432,1.3435,1.3435,1.3436,1.3434,1.3437,1.3444,1.3445,1.3437,1.3437,1.3437,0,1.3336,1.3352,1.3362,1.3367,1.3379,1.3383,1.3389,1.3397,1.3402,1.341,1.3413,1.3421,1.3426,1.3432,1.3436,1.3435,1.3446,1.3445,1.3449,1.3448,1.3451,1.3451,1.3458,1.3454,1.3454,1.3454,1.3454,0,1.3346,1.3355,1.3364,1.337,1.338,1.3386,1.3394,1.3399,1.3406,1.3413,1.3416,1.3422,1.3429,1.3435,1.3439,1.3446,1.3449,1.3451,1.3451,1.345,1.345,1.3453,1.3452,1.3454,1.3454,1.3454,1.3454,0,1.3352,1.3359,1.337,1.338,1.3383,1.3389,1.3397,1.3403,1.3407,1.3416,1.3418,1.3425,1.3432,1.3438,1.3448,1.345,1.3458,1.3459,1.3455,1.3456,1.3458,1.3458,1.3468,1.3469,1.3464,1.3465,1.3465,0,1.3358,1.3365,1.3375,1.338,1.3385,1.3393,1.3398,1.3404,1.3409,1.3418,1.3422,1.343,1.3436,1.3448,1.3453,1.3461,1.3461,1.3464,1.3463,1.3461,1.3461,1.346,1.346,1.3465,1.3465,1.3465,1.3465,0,1.3368,1.337,1.3378,1.3386,1.3392,1.3399,1.3406,1.341,1.3416,1.3421,1.3429,1.3434,1.3444,1.3451,1.3459,1.3463,1.3464,1.3465,1.3466,1.3465,1.3462,1.3463,1.3456,1.3465,1.3465,1.3465,1.3465,1.3465,1.3373,1.3379,1.3386,1.3394,1.34,1.3406,1.3411,1.3416,1.3423,1.3432,1.3434,1.3442,1.3448,1.3458,1.3463,1.3468,1.3468,1.347,1.347,1.347,1.347,1.3461,1.3469,1.3469,1.3469,1.3469,1.3469,0,1.3382,1.3387,1.3394,1.3403,1.3409,1.341,1.3418,1.3422,1.3429,1.3435,1.3441,1.3449,1.3456,1.3462,1.3469,1.3472,1.3473,1.3473,1.3473,1.3474,1.347,1.3468,1.3472,1.3472,1.3472,1.3472,1.3472,1.3472,1.3387,1.3396,1.3399,1.341,1.3415,1.3423,1.3427,1.3432,1.3436,1.3445,1.3451,1.3455,1.346,1.3467,1.3473,1.3474,1.3476,1.3477,1.3478,1.3475,1.3474,1.3474,1.3472,1.3477,1.3477,1.3482,1.3482,1.3482]},{"header":{"parameterUnit":"m.s-1","parameterCategory":1,"la1":30.2991,"la2":30.254,"lo1":-89.0895,"lo2":-89.0444,"dy":0.0017,"dx":0.0017,"nx":28,"ny":28,"refTime":"2025-09-16T03:00:00:Z","depth":0,"parameterNumber":3,"parameterNumberName":"V-component_of_WINDS"},"data":[0,0,0,0,0,0,0,0,0,0,0,0,0,0,0,0,0,0,0,0,0,0,0,0,0,0,0,0,0,0,0,0,0,0,0,0,0,0,0,0,0,0,0,0,0,0,0,0,0,0,0,0,0,0,0,0,0,0,2.1264,2.1263,0,2.1216,2.1215,2.1215,2.1154,2.1153,2.1152,2.1151,2.1103,2.1102,2.1102,0,0,0,0,0,0,0,0,0,0,0,0,0,2.1302,2.1302,2.1264,2.1263,2.1263,2.1216,2.1215,2.1214,2.1154,2.1153,2.1152,2.1151,2.1103,2.1102,2.1102,0,0,0,0,0,0,0,0,0,0,0,0,0,2.1273,2.1302,2.1264,2.1227,2.1223,2.1216,2.1215,2.1214,2.1154,2.1153,2.1152,2.115,2.1103,2.1102,2.1102,2.1127,0,0,2.11,2.11,0,0,0,0,0,0,0,0,2.1275,2.1272,2.1233,2.1229,2.1225,2.1189,2.1211,2.1185,2.1155,2.1181,2.1151,2.1149,2.1133,2.113,2.1124,2.1125,2.1123,2.11,2.1099,2.1099,2.1099,0,0,0,0,0,0,0,2.1277,2.1274,2.1245,2.1232,2.1228,2.1212,2.1207,2.1206,2.1165,2.1178,2.1174,2.1169,2.113,2.1124,2.1122,2.1122,2.11,2.1099,2.1099,2.1099,2.114,2.1141,0,0,0,0,0,0,2.1285,2.1276,2.1246,2.1243,2.1247,2.1213,2.1206,2.1202,2.1165,2.1158,2.117,2.1166,2.1126,2.1123,2.112,2.1146,2.1099,2.1099,2.1098,2.1138,2.114,2.1141,0,0,0,0,0,0,2.1286,2.1283,2.1248,2.1258,2.1253,2.1214,2.121,2.1202,2.1196,2.1159,2.1152,2.1172,2.1125,2.1121,2.1125,2.1143,2.1098,2.1098,2.1136,2.1139,2.1141,2.1198,0,0,0,0,0,0,2.1287,2.1283,2.1293,2.1259,2.1252,2.1255,2.1211,2.1202,2.1195,2.119,2.1158,2.1152,2.1123,2.1127,2.1125,2.1142,2.1097,2.1135,2.1137,2.114,2.1195,2.1202,2.1209,0,0,0,0,0,2.1289,2.1312,2.1294,2.129,2.1263,2.1256,2.1252,2.1219,2.1197,2.1206,2.1182,2.1153,2.1142,2.1128,2.1125,2.1142,2.1133,2.1137,2.114,2.1192,2.1201,2.1209,0,0,0,0,0,0,2.1349,2.1307,2.1286,2.1299,2.1281,2.1246,2.1256,2.123,2.1218,2.1213,2.1173,2.1166,2.1175,2.1159,2.1144,2.1164,2.1133,2.1136,2.1174,2.1182,2.1189,2.1192,2.1097,0,0,0,0,0,2.1364,2.1361,2.1324,2.1339,2.1331,2.1295,2.1291,2.1266,2.1247,2.1239,2.1215,2.1197,2.1189,2.1185,2.1176,2.1193,2.1184,2.1203,2.121,2.1216,2.1218,2.1224,2.1231,2.1152,2.1152,2.1152,0,0,2.1395,2.1371,2.1372,2.1351,2.1334,2.1332,2.1289,2.1289,2.1287,2.1239,2.1241,2.1223,2.12,2.121,2.1213,2.1197,2.1238,2.122,2.1225,2.1224,2.1228,2.1235,2.1242,2.1154,2.1154,2.1153,0,0,2.1449,2.1431,2.1441,2.1425,2.14,2.1376,2.1378,2.1346,2.1332,2.1333,2.1297,2.1294,2.1282,2.1266,2.1256,2.1303,2.1276,2.1302,2.1338,2.1344,2.135,2.1355,2.137,2.1376,2.1305,2.1305,2.1305,0,2.149,2.1485,2.1449,2.145,2.1441,2.1398,2.1406,2.1393,2.1367,2.1361,2.1343,2.1326,2.1308,2.1312,2.1324,2.1318,2.1318,2.1305,2.1352,2.1357,2.1361,2.1375,2.1381,2.1308,2.1308,2.1307,2.1307,0,2.1535,2.1532,2.1543,2.1518,2.151,2.1516,2.148,2.1477,2.1453,2.143,2.1431,2.1408,2.1392,2.1392,2.1369,2.1393,2.1383,2.136,2.1328,2.1373,2.1385,2.139,2.1313,2.1311,2.1311,2.131,0,0,2.1625,2.158,2.1584,2.1572,2.1541,2.1538,2.1541,2.1525,2.1522,2.1506,2.1506,2.1496,2.1473,2.1463,2.1438,2.1443,2.1479,2.1418,2.1417,2.1429,2.1501,2.1518,2.1525,2.1461,2.1462,2.1463,2.1503,0,2.1672,2.1674,2.1642,2.1652,2.1648,2.1606,2.1608,2.1589,2.1568,2.1561,2.1538,2.1531,2.1503,2.1495,2.1499,2.1474,2.1493,2.1471,2.146,2.146,2.1465,2.1532,2.155,2.1589,2.1507,2.1508,2.1509,0,2.1727,2.1713,2.1723,2.169,2.1687,2.169,2.1672,2.1666,2.1643,2.1628,2.1615,2.1586,2.1586,2.1557,2.1554,2.154,2.1534,2.1521,2.1521,2.1518,2.1486,2.1528,2.16,2.1606,2.1516,2.1516,2.1515,0,2.1789,2.1773,2.1776,2.1767,2.173,2.1732,2.1716,2.1692,2.1684,2.1669,2.1663,2.1648,2.164,2.1628,2.1596,2.1578,2.1596,2.1565,2.1582,2.1583,2.1587,2.1587,2.1657,2.1586,2.1586,2.1585,2.1585,0,2.1844,2.1851,2.1803,2.1805,2.1812,2.1774,2.1782,2.1762,2.1741,2.1737,2.1701,2.1699,2.1657,2.1649,2.1624,2.1625,2.1622,2.1608,2.1601,2.161,2.1612,2.1604,2.16,2.1587,2.1587,2.1586,2.1586,0,2.1914,2.1883,2.1883,2.1847,2.1839,2.1845,2.1814,2.1814,2.179,2.1786,2.1783,2.1746,2.1736,2.1702,2.1684,2.1666,2.1674,2.1662,2.1682,2.1677,2.1695,2.1693,2.1761,2.1768,2.1694,2.1695,2.1696,0,2.195,2.1955,2.1919,2.1914,2.19,2.1893,2.1885,2.1848,2.1841,2.1814,2.1817,2.1803,2.179,2.1775,2.1746,2.1731,2.1716,2.1742,2.1714,2.1723,2.1714,2.1714,2.1713,2.1747,2.1748,2.1749,2.175,0,2.2017,2.2001,2.199,2.1974,2.1965,2.195,2.1933,2.1931,2.189,2.1883,2.1872,2.1862,2.1842,2.1828,2.1808,2.1791,2.1763,2.1759,2.1761,2.177,2.1781,2.1773,2.1696,2.1757,2.1756,2.1756,2.1755,2.1755,2.207,2.2071,2.2046,2.2035,2.2018,2.2003,2.2001,2.1977,2.1966,2.1947,2.1926,2.1917,2.1892,2.1862,2.1847,2.1839,2.1824,2.1828,2.1829,2.183,2.1834,2.1784,2.1835,2.1835,2.1835,2.1834,2.1834,0,2.2133,2.2115,2.2105,2.2082,2.2073,2.2048,2.2028,2.2022,2.2014,2.1994,2.1981,2.1967,2.1953,2.1923,2.1906,2.1904,2.1891,2.1901,2.19,2.1896,2.1849,2.1848,2.1912,2.1912,2.1912,2.1912,2.1912,2.1912,2.2165,2.2165,2.2146,2.2137,2.2119,2.2109,2.2099,2.2084,2.2068,2.2054,2.2042,2.2022,2.1997,2.1978,2.1964,2.1955,2.195,2.1964,2.1951,2.1907,2.19,2.1893,2.1891,2.1963,2.1963,2.1998,2.1998,2.1999]}]]